• în România
  • Lista ţărilor
  • Pe 7 zile
  • Temperatura apei
  • Hartă satelitară
  • Meteo pe hartă
  • Widget-uri
  • user-avatar
    Intrare

    Meteo pe oră la Pontypool

    Astăzi, 16 August, Joi

    Timp Temperatura Precipitaţii Vânt Presiune Umiditate
    00:00 +17°C° 0 mm 5 m/s 745 mmHg 90%
    01:00 +17°C° 0,6 mm 6 m/s 744 mmHg 91%
    02:00 +17°C° 0,6 mm 6 m/s 744 mmHg 92%
    03:00 +16°C° 0,6 mm 6 m/s 744 mmHg 93%
    04:00 +16°C° 1,1 mm 6 m/s 744 mmHg 93%
    05:00 +15°C° 1,1 mm 6 m/s 744 mmHg 93%
    06:00 +15°C° 1,1 mm 5 m/s 744 mmHg 93%
    07:00 +15°C° 0,6 mm 5 m/s 744 mmHg 89%
    08:00 +15°C° 0,6 mm 5 m/s 744 mmHg 85%
    09:00 +15°C° 0,6 mm 5 m/s 744 mmHg 81%
    10:00 +16°C° 0,1 mm 6 m/s 745 mmHg 75%
    11:00 +17°C° 0,1 mm 6 m/s 745 mmHg 68%
    12:00 +19°C° 0,1 mm 6 m/s 745 mmHg 61%
    13:00 +19°C° 0,1 mm 6 m/s 745 mmHg 62%
    14:00 +19°C° 0,1 mm 6 m/s 745 mmHg 62%
    15:00 +19°C° 0,1 mm 6 m/s 745 mmHg 63%
    16:00 +17°C° 0,1 mm 6 m/s 746 mmHg 66%
    17:00 +17°C° 0,1 mm 5 m/s 746 mmHg 69%
    18:00 +16°C° 0,1 mm 5 m/s 746 mmHg 72%
    19:00 +15°C° 0 mm 5 m/s 746 mmHg 77%
    20:00 +13°C° 0 mm 4 m/s 746 mmHg 82%
    21:00 +12°C° 0 mm 4 m/s 747 mmHg 88%
    22:00 +12°C° 0 mm 3 m/s 747 mmHg 89%
    23:00 +11°C° 0 mm 3 m/s 747 mmHg 89%

    Mâine, 17 August, Vineri

    Timp Temperatura Precipitaţii Vânt Presiune Umiditate
    00:00 +11°C° 0 mm 3 m/s 748 mmHg 90%
    01:00 +11°C° 0 mm 3 m/s 748 mmHg 91%
    02:00 +11°C° 0 mm 3 m/s 748 mmHg 91%
    03:00 +11°C° 0 mm 3 m/s 748 mmHg 92%
    04:00 +11°C° 0 mm 3 m/s 748 mmHg 92%
    05:00 +11°C° 0 mm 3 m/s 748 mmHg 92%
    06:00 +11°C° 0 mm 3 m/s 749 mmHg 91%
    07:00 +13°C° 0 mm 3 m/s 749 mmHg 85%
    08:00 +14°C° 0 mm 4 m/s 749 mmHg 78%
    09:00 +17°C° 0 mm 4 m/s 749 mmHg 72%
    10:00 +16°C° 0 mm 5 m/s 750 mmHg 70%
    11:00 +17°C° 0 mm 5 m/s 750 mmHg 68%
    12:00 +17°C° 0 mm 5 m/s 750 mmHg 67%
    13:00 +17°C° 0 mm 6 m/s 750 mmHg 69%
    14:00 +17°C° 0 mm 6 m/s 750 mmHg 71%
    15:00 +17°C° 0 mm 6 m/s 749 mmHg 74%
    16:00 +16°C° 0 mm 6 m/s 749 mmHg 77%
    17:00 +16°C° 0 mm 6 m/s 749 mmHg 80%
    18:00 +16°C° 0 mm 6 m/s 749 mmHg 83%
    19:00 +15°C° 0 mm 5 m/s 750 mmHg 85%
    20:00 +15°C° 0 mm 5 m/s 750 mmHg 87%
    21:00 +15°C° 0 mm 5 m/s 750 mmHg 89%
    22:00 +15°C° 0 mm 5 m/s 750 mmHg 90%
    23:00 +15°C° 0 mm 5 m/s 750 mmHg 91%

    Poimâine, 18 August, Sâmbătă

    Timp Temperatura Precipitaţii Vânt Presiune Umiditate
    00:00 +15°C° 0 mm 5 m/s 750 mmHg 91%
    01:00 +14°C° 0 mm 5 m/s 750 mmHg 92%
    02:00 +14°C° 0 mm 5 m/s 750 mmHg 92%
    03:00 +14°C° 0 mm 5 m/s 750 mmHg 93%
    04:00 +14°C° 0 mm 5 m/s 750 mmHg 93%
    05:00 +15°C° 0 mm 4 m/s 750 mmHg 92%
    06:00 +15°C° 0 mm 4 m/s 750 mmHg 92%
    07:00 +16°C° 0 mm 5 m/s 750 mmHg 87%
    08:00 +17°C° 0 mm 5 m/s 750 mmHg 83%
    09:00 +19°C° 0 mm 5 m/s 751 mmHg 79%
    10:00 +20°C° 0 mm 5 m/s 751 mmHg 76%
    11:00 +20°C° 0 mm 5 m/s 751 mmHg 74%
    12:00 +21°C° 0 mm 5 m/s 751 mmHg 71%
    13:00 +21°C° 0 mm 6 m/s 751 mmHg 71%
    14:00 +22°C° 0 mm 6 m/s 751 mmHg 71%
    15:00 +22°C° 0 mm 6 m/s 751 mmHg 71%
    16:00 +21°C° 0 mm 5 m/s 751 mmHg 74%
    17:00 +20°C° 0 mm 5 m/s 751 mmHg 77%
    18:00 +20°C° 0 mm 4 m/s 751 mmHg 80%
    19:00 +19°C° 0 mm 4 m/s 751 mmHg 85%
    20:00 +18°C° 0 mm 3 m/s 751 mmHg 90%
    21:00 +16°C° 0 mm 3 m/s 751 mmHg 95%
    22:00 +17°C° 0 mm 3 m/s 751 mmHg 95%
    23:00 +17°C° 0 mm 3 m/s 751 mmHg 96%

    19 August, Duminică

    Timp Temperatura Precipitaţii Vânt Presiune Umiditate
    00:00 +17°C° 0 mm 4 m/s 751 mmHg 96%
    01:00 +17°C° 0 mm 4 m/s 751 mmHg 95%
    02:00 +16°C° 0 mm 5 m/s 750 mmHg 95%
    03:00 +16°C° 0 mm 5 m/s 750 mmHg 94%
    04:00 +16°C° 0 mm 5 m/s 750 mmHg 93%
    05:00 +16°C° 0 mm 6 m/s 749 mmHg 92%
    06:00 +16°C° 0 mm 6 m/s 749 mmHg 91%
    07:00 +17°C° 0 mm 7 m/s 749 mmHg 90%
    08:00 +17°C° 0 mm 7 m/s 749 mmHg 88%
    09:00 +18°C° 0 mm 7 m/s 749 mmHg 86%
    10:00 +18°C° 0 mm 7 m/s 749 mmHg 85%
    11:00 +20°C° 0 mm 7 m/s 749 mmHg 83%
    12:00 +20°C° 0 mm 8 m/s 749 mmHg 81%
    13:00 +21°C° 0 mm 7 m/s 750 mmHg 80%
    14:00 +21°C° 0 mm 7 m/s 750 mmHg 79%
    15:00 +21°C° 0 mm 7 m/s 750 mmHg 77%
    16:00 +21°C° 0 mm 6 m/s 750 mmHg 79%
    17:00 +20°C° 0 mm 6 m/s 750 mmHg 81%
    18:00 +20°C° 0 mm 5 m/s 750 mmHg 83%
    19:00 +19°C° 0 mm 5 m/s 750 mmHg 87%
    20:00 +18°C° 0 mm 4 m/s 750 mmHg 91%
    21:00 +17°C° 0 mm 4 m/s 751 mmHg 95%
    22:00 +17°C° 0 mm 4 m/s 751 mmHg 95%
    23:00 +17°C° 0 mm 4 m/s 750 mmHg 96%

    20 August, Luni

    Timp Temperatura Precipitaţii Vânt Presiune Umiditate
    00:00 +17°C° 0 mm 4 m/s 750 mmHg 96%
    01:00 +17°C° 0 mm 4 m/s 750 mmHg 96%
    02:00 +18°C° 0 mm 4 m/s 750 mmHg 96%
    03:00 +18°C° 0 mm 4 m/s 750 mmHg 96%
    04:00 +18°C° 0 mm 4 m/s 750 mmHg 96%
    05:00 +18°C° 0 mm 4 m/s 750 mmHg 96%
    06:00 +18°C° 0 mm 4 m/s 750 mmHg 95%
    07:00 +19°C° 0 mm 4 m/s 750 mmHg 92%
    08:00 +20°C° 0 mm 4 m/s 750 mmHg 89%
    09:00 +21°C° 0 mm 5 m/s 751 mmHg 86%
    10:00 +21°C° 0,1 mm 5 m/s 750 mmHg 83%
    11:00 +21°C° 0,1 mm 6 m/s 750 mmHg 80%
    12:00 +22°C° 0,1 mm 6 m/s 750 mmHg 77%
    13:00 +22°C° 0 mm 6 m/s 750 mmHg 75%
    14:00 +22°C° 0 mm 6 m/s 750 mmHg 73%
    15:00 +22°C° 0 mm 7 m/s 750 mmHg 72%
    16:00 +21°C° 0 mm 6 m/s 750 mmHg 74%
    17:00 +20°C° 0 mm 5 m/s 750 mmHg 76%
    18:00 +20°C° 0 mm 5 m/s 750 mmHg 77%
    19:00 +18°C° 0 mm 4 m/s 750 mmHg 82%
    20:00 +17°C° 0 mm 3 m/s 750 mmHg 87%
    21:00 +16°C° 0 mm 3 m/s 751 mmHg 92%
    22:00 +16°C° 0 mm 3 m/s 750 mmHg 93%
    23:00 +16°C° 0 mm 3 m/s 750 mmHg 95%

    21 August, Marţi

    Timp Temperatura Precipitaţii Vânt Presiune Umiditate
    00:00 +14°C° 0 mm 3 m/s 750 mmHg 96%
    01:00 +16°C° 0 mm 3 m/s 750 mmHg 96%
    02:00 +16°C° 0 mm 3 m/s 750 mmHg 96%
    03:00 +16°C° 0 mm 3 m/s 750 mmHg 97%
    04:00 +16°C° 0 mm 3 m/s 749 mmHg 96%
    05:00 +16°C° 0 mm 3 m/s 749 mmHg 95%
    06:00 +16°C° 0 mm 3 m/s 749 mmHg 95%
    07:00 +17°C° 0,1 mm 3 m/s 750 mmHg 90%
    08:00 +18°C° 0,1 mm 4 m/s 750 mmHg 86%
    09:00 +19°C° 0,1 mm 4 m/s 750 mmHg 81%
    10:00 +19°C° 0 mm 4 m/s 750 mmHg 77%
    11:00 +20°C° 0 mm 4 m/s 750 mmHg 74%
    12:00 +20°C° 0 mm 5 m/s 750 mmHg 70%
    13:00 +20°C° 0 mm 5 m/s 750 mmHg 69%
    14:00 +20°C° 0 mm 5 m/s 750 mmHg 67%
    15:00 +20°C° 0 mm 5 m/s 750 mmHg 66%
    16:00 +20°C° 0 mm 5 m/s 750 mmHg 68%
    17:00 +19°C° 0 mm 4 m/s 750 mmHg 70%
    18:00 +19°C° 0 mm 4 m/s 750 mmHg 72%
    19:00 +17°C° 0 mm 4 m/s 751 mmHg 78%
    20:00 +14°C° 0 mm 3 m/s 751 mmHg 84%
    21:00 +13°C° 0 mm 3 m/s 752 mmHg 89%
    22:00 +12°C° 0 mm 3 m/s 752 mmHg 89%
    23:00 +11°C° 0 mm 3 m/s 752 mmHg 90%
    Arată mai mult